User: anonymous   Login
Location: ?
(35.4214°N, 139.3011°E)
Time: 08:34:04
(UTC+00:00)
Language:

Hubble Space Telescope - Orbit

View from above orbital plane
View from above orbital plane
View from above satellite
View from above satellite

Ground track
Ground track

The orbit data is extracted from the following two-line orbital elements,

1 20580U 90037B   20265.83648642 +.00000354 +00000-0 +10501-4 0  9993
2 20580 028.4705 042.1576 0002876 051.1272 078.6093 15.09433317470537
Epoch (UTC): 21 September 2020 20:04:32
Eccentricity: 0.0002876
inclination: 28.4705°
perigee height: 536 km
apogee height: 540 km
right ascension of ascending node: 42.1576°
argument of perigee: 51.1272°
revolutions per day: 15.09433317
mean anomaly at epoch: 78.6093°
orbit number at epoch: 47053

The dashed part of the orbit path shows where the satellite is in the earth's shadow,  

DLR